Location: El Recuerdo
(3.6589°N, 75.6172°W)
Time: 00:44:35
(UTC+00:00)

Meteor 1-5 Rocket - Pass Details

Date: 13 December 2025
Orbit: 788 x 913 km, 81.2° (Epoch: 20 January)

Event Time Altitude Azimuth Distance (km) Brightness Sun altitude
Rises 23:08:51 0° 357° (N) 3,357 7.1 -4.2°
Reaches altitude 10° 23:11:13 10° 358° (N) 2,444 6.4 -4.7°
Maximum altitude 23:16:46 80° 85° (E) 875 4.2 -6.0°
Drops below altitude 10° 23:22:32 10° 172° (S) 2,535 6.9 -7.3°
Sets 23:25:01 0° 173° (S) 3,492 7.6 -7.9°
